Hourly Data Report for November 09, 2019

All times are specified in Local Standard Time (LST). Add 1 hour to adjust for Daylight Saving Time where and when it is observed.

WOODSTOCK NEWBRIDGE
NEW BRUNSWICK
Current Station Operator: ECCC - MSC

46°09'08.000" N
67°32'34.000" W
154.00 m
8105603
71606
EWD

Download Data

Hourly Data (November 2019)
Hourly Data Report for November 9, 2019
TIME Temp Definition
°C
Dew Point Definition
°C
Rel Hum Definition
%
Wind Dir Definition
10's deg

Wind Spd Definition
km/h
Visibility Definition
km
Stn Press Definition
kPa
Hmdx Definition


Wind Chill Definition


Weather Definition


00:00 -5.2 -8.5 77 29 8   99.75   -9 LegendNANA
01:00 -5.4 -8.5 79 28 10   99.83   -10 LegendNANA
02:00 -6.2 -9.0 80 28 8   99.91   -10 LegendNANA
03:00 -6.6 -9.5 80 28 8   100.01   -10 LegendNANA
04:00 -7.0 -9.7 81 28 3   100.03   -9 LegendNANA
05:00 -7.7 -9.9 84 25 5   100.09   -10 LegendNANA
06:00 -7.9 -10.1 84 26 8   100.17   -12 LegendNANA
07:00 -8.4 -10.5 85 26 5   100.24   -11 LegendNANA
08:00 -8.2 -10.1 86 24 2   100.34   -9 LegendNANA
09:00 -6.3 -9.8 76 24 5   100.38   -9 LegendNANA
10:00 -5.3 -9.4 73 24 8   100.39   -9 LegendNANA
11:00 -4.5 -9.8 67 20 7   100.40   -8 LegendNANA
12:00 -2.6 -8.7 63 22 11   100.37   -7 LegendNANA
13:00 -1.8 -9.2 57 20 8   100.30   -5 LegendNANA
14:00 -1.6 -7.1 66 20 10   100.27   -5 LegendNANA
15:00 -1.2 -6.7 66 20 10   100.24   -5 LegendNANA
16:00 -1.6 -6.0 72 16 5   100.26   -3 LegendNANA
17:00 -2.5 -6.0 77 18 7   100.28   -5 LegendNANA
18:00 -2.7 -6.5 75 17 8   100.29   -6 LegendNANA
19:00 -3.5 -6.4 80 16 7   100.29   -6 LegendNANA
20:00 -3.2 -6.4 79 16 7   100.26   -6 LegendNANA
21:00 -2.9 -6.4 77 16 8   100.25   -6 LegendNANA
22:00 -2.8 -6.2 77 16 8   100.23   -6 LegendNANA
23:00 -3.1 -6.3 78 16 6   100.16   -6 LegendNANA

Notes on Data Quality.

Legend

  • E = Estimated
  • M = Missing
  • NA = Not Available
Date modified: